Regional Weather Roundup
Issued by NWS

Home | Current Version | Previous Version | Graphics & Text | Print | Product List | Glossary Off
Versions: 1 2 3 4 5 6 7 8 9 10 11 12 13 14 15 16 17 18 19 20 21 22 23 24 25 26 27 28 29 30 31 32 33 34 35 36 37 38 39 40 41 42 43 44 45 46 47 48 49 50

000
ASUS43 KTOP 252359
RWRKS

WEATHER ROUNDUP FOR KANSAS
NATIONAL WEATHER SERVICE GOODLAND KS
700 PM CDT FRI MAY 25 2018

NOTE:  "FAIR" INDICATES FEW OR NO CLOUDS BELOW 12,000 FEET WITH NO
SIGNIFICANT WEATHER AND/OR OBSTRUCTIONS TO VISIBILITY.

KSZ001>006-013>018-027>032-041>047-260100-
NORTHWEST KANSAS

CITY           SKY/WX    TMP DP  RH WIND       PRES   REMARKS
GOODLAND       SUNNY     89  44  20 VRB3      29.91S
6HR MIN TEMP:  87; 6HR MAX TEMP:  92;

HAYS           SUNNY     89  61  38 S7        29.85R
HILL CITY      MOSUNNY   83  66  56 W5        29.84F
6HR MIN TEMP:  83; 6HR MAX TEMP:  93;

RUSSELL        SUNNY     89  65  44 S12       29.82F
6HR MIN TEMP:  84; 6HR MAX TEMP:  90;

$$

KSZ061>065-074>080-084>089-260100-
SOUTHWEST KANSAS

CITY           SKY/WX    TMP DP  RH WIND       PRES   REMARKS
DODGE CITY     SUNNY     89  58  34 SE13      29.89R
6HR MIN TEMP:  86; 6HR MAX TEMP:  93;

GARDEN CITY    SUNNY     91  52  26 SE9       29.88S
6HR MIN TEMP:  85; 6HR MAX TEMP:  93;

GREAT BEND     SUNNY     87  64  46 S9        29.85S
LIBERAL        SUNNY     91  59  33 E9        29.88S
$$

KSZ066>073-081>083-090>101-260100-
SOUTHEAST KANSAS

CITY           SKY/WX    TMP DP  RH WIND       PRES   REMARKS
CHANUTE        MOSUNNY   84  68  58 W8        29.82F
6HR MIN TEMP:  78; 6HR MAX TEMP:  86;

COFFEYVILLE    CLOUDY    82  64  54 W6        29.82F
6HR MIN TEMP:  79; 6HR MAX TEMP:  85;

HUTCHINSON     SUNNY     88  64  44 S10       29.83F
6HR MIN TEMP:  86; 6HR MAX TEMP:  90;

MEDICINE LODGE   N/A     86  66  51 SE8       29.83F
NEWTON         SUNNY     85  66  53 S12       29.84F
PARSONS        CLOUDY    83  67  58 SW6       29.84F
6HR MIN TEMP:  79; 6HR MAX TEMP:  85;

WICHITA INTL   MOSUNNY   87  62  43 SW9       29.83F
6HR MIN TEMP:  85; 6HR MAX TEMP:  89;

WICHITA JABRA  SUNNY     85  65  51 S8        29.83F
6HR MIN TEMP:  83; 6HR MAX TEMP:  88;

WICHITA MCCONL SUNNY     86  63  46 SW9       29.83F
WINFIELD       SUNNY     84  65  52 SW6       29.85F
6HR MIN TEMP:  79; 6HR MAX TEMP:  85;

$$

KSZ007>012-019>026-033>040-048>060-102>105-260100-
NORTHEAST KANSAS

CITY           SKY/WX    TMP DP  RH WIND       PRES   REMARKS
CONCORDIA      SUNNY     88  64  44 SW12      29.79F
6HR MIN TEMP:  84; 6HR MAX TEMP:  90;

EMPORIA        SUNNY     84  69  60 SW7       29.81F
6HR MIN TEMP:  79; 6HR MAX TEMP:  85;

LAWRENCE       MOSUNNY   86  66  51 SW5       29.78F
6HR MIN TEMP:  77; 6HR MAX TEMP:  87;

MANHATTAN      SUNNY     93  62  35 SW8       29.77F
6HR MIN TEMP:  83; 6HR MAX TEMP:  94;

OLATHE IND     MOSUNNY   83  66  56 SW7       29.81F
6HR MIN TEMP:  76; 6HR MAX TEMP:  85;

OLATHE EXE     SUNNY     80  65  59 SW6       29.81S
6HR MIN TEMP:  75; 6HR MAX TEMP:  83;

SALINA         SUNNY     91  66  43 S12       29.80F
6HR MIN TEMP:  88; 6HR MAX TEMP:  93;

TOPEKA BILLARD MOSUNNY   89  67  47 W8        29.77F
6HR MIN TEMP:  79; 6HR MAX TEMP:  90;

TOPEKA FORBES  CLOUDY    88  70  55 S7        29.79F
6HR MIN TEMP:  80; 6HR MAX TEMP:  90;

$$




USA.gov is the U.S. government's official web portal to all federal, state and local government web resources and services.